Location: ???????
(55.8860°N, 38.0932°E)
Time: 23:02:12
(UTC+00:00)

SWAS - Pass Details

Date: 14 April 2024
Orbit: 561 x 572 km, 69.9° (Epoch: 23 May)

Event Time Altitude Azimuth Distance (km) Brightness Sun altitude
Rises 00:33:07 0° 322° (NW) 2,781 8.0 -14.2°
Reaches altitude 10° 00:35:20 10° 322° (NW) 1,882 7.1 -14.0°
Maximum altitude 00:39:32 80° 236° (SW) 586 4.3 -13.5°
Drops below altitude 10° 00:43:44 10° 149° (SSE) 1,877 6.9 -13.1°
Sets 00:45:57 0° 149° (SSE) 2,773 7.8 -12.8°
